When you browse on this site, cookies collect data to enhance your experience and personalize the content and advertising you see.
Visit our Privacy Policy to learn more. By continuing to use the site, you agree to this use of cookies and data.
  • In Austria
  • List of Countries
  • For 7 days
  • Water Temperature
  • Satellite Maps
  • Weather Map
  • News
  • Weather Widgets
  • user-avatar
    Login

    Hourly Weather Nashavar

    Today, 25 June, Tuesday

    Time Temperature Precipitation Wind Pressure Humidity
    00:00 +32°C° 0.1 mm 2 mps 726 mmHg 44%
    01:00 +32°C° 0.1 mm 2 mps 726 mmHg 46%
    02:00 +31°C° 0.1 mm 1 mps 726 mmHg 48%
    03:00 +31°C° 0.1 mm 1 mps 726 mmHg 48%
    04:00 +30°C° 0.1 mm 1 mps 725 mmHg 49%
    05:00 +30°C° 0.1 mm 1 mps 725 mmHg 50%
    06:00 +31°C° 0 mm 1 mps 726 mmHg 46%
    07:00 +32°C° 0 mm 1 mps 726 mmHg 42%
    08:00 +33°C° 0 mm 1 mps 726 mmHg 38%
    09:00 +35°C° 0 mm 1 mps 726 mmHg 34%
    10:00 +36°C° 0 mm 1 mps 726 mmHg 30%
    11:00 +39°C° 0 mm 1 mps 725 mmHg 26%
    12:00 +40°C° 0 mm 1 mps 725 mmHg 23%
    13:00 +41°C° 0 mm 1 mps 725 mmHg 20%
    14:00 +42°C° 0 mm 1 mps 725 mmHg 16%
    15:00 +42°C° 0 mm 2 mps 724 mmHg 17%
    16:00 +42°C° 0 mm 2 mps 724 mmHg 18%
    17:00 +43°C° 0 mm 3 mps 723 mmHg 18%
    18:00 +41°C° 0 mm 2 mps 723 mmHg 20%
    19:00 +40°C° 0 mm 2 mps 723 mmHg 22%
    20:00 +39°C° 0 mm 2 mps 723 mmHg 24%
    21:00 +39°C° 0 mm 2 mps 723 mmHg 25%
    22:00 +38°C° 0 mm 2 mps 723 mmHg 26%
    23:00 +37°C° 0 mm 2 mps 723 mmHg 26%

    Tomorrow, 26 June, Wednesday

    Time Temperature Precipitation Wind Pressure Humidity
    00:00 +36°C° 0 mm 2 mps 723 mmHg 28%
    01:00 +34°C° 0 mm 1 mps 723 mmHg 29%
    02:00 +33°C° 0 mm 1 mps 723 mmHg 31%
    03:00 +33°C° 0 mm 1 mps 723 mmHg 32%
    04:00 +32°C° 0 mm 1 mps 722 mmHg 33%
    05:00 +29°C° 0 mm 0 mps 722 mmHg 34%
    06:00 +33°C° 0 mm 1 mps 723 mmHg 31%
    07:00 +34°C° 0 mm 1 mps 723 mmHg 27%
    08:00 +35°C° 0 mm 1 mps 723 mmHg 24%
    09:00 +37°C° 0 mm 1 mps 723 mmHg 22%
    10:00 +39°C° 0 mm 1 mps 723 mmHg 19%
    11:00 +41°C° 0 mm 1 mps 723 mmHg 16%
    12:00 +42°C° 0 mm 1 mps 723 mmHg 14%
    13:00 +43°C° 0 mm 1 mps 723 mmHg 12%
    14:00 +44°C° 0 mm 1 mps 722 mmHg 11%
    15:00 +44°C° 0 mm 1 mps 722 mmHg 10%
    16:00 +44°C° 0 mm 1 mps 721 mmHg 9%
    17:00 +45°C° 0 mm 2 mps 720 mmHg 9%
    18:00 +43°C° 0 mm 2 mps 721 mmHg 11%
    19:00 +42°C° 0 mm 2 mps 721 mmHg 13%
    20:00 +41°C° 0 mm 2 mps 721 mmHg 15%
    21:00 +40°C° 0 mm 2 mps 721 mmHg 16%
    22:00 +39°C° 0 mm 1 mps 721 mmHg 18%
    23:00 +37°C° 0 mm 1 mps 721 mmHg 19%

    Day after tomorrow, 27 June, Thursday

    Time Temperature Precipitation Wind Pressure Humidity
    00:00 +36°C° 0 mm 1 mps 720 mmHg 20%
    01:00 +36°C° 0 mm 1 mps 720 mmHg 21%
    02:00 +35°C° 0 mm 1 mps 720 mmHg 21%
    03:00 +34°C° 0.1 mm 1 mps 720 mmHg 23%
    04:00 +34°C° 0.1 mm 1 mps 720 mmHg 25%
    05:00 +33°C° 0.1 mm 1 mps 719 mmHg 26%
    06:00 +34°C° 0.3 mm 1 mps 720 mmHg 25%
    07:00 +36°C° 0.3 mm 2 mps 720 mmHg 24%
    08:00 +36°C° 0.3 mm 2 mps 720 mmHg 23%
    09:00 +38°C° 0 mm 2 mps 721 mmHg 20%
    10:00 +40°C° 0 mm 1 mps 721 mmHg 18%
    11:00 +42°C° 0 mm 1 mps 721 mmHg 16%
    12:00 +42°C° 0 mm 1 mps 720 mmHg 15%
    13:00 +43°C° 0 mm 2 mps 720 mmHg 15%
    14:00 +45°C° 0 mm 2 mps 720 mmHg 14%
    15:00 +43°C° 0 mm 5 mps 719 mmHg 18%
    16:00 +43°C° 0 mm 8 mps 719 mmHg 21%
    17:00 +40°C° 0 mm 10 mps 718 mmHg 25%
    18:00 +40°C° 0 mm 8 mps 719 mmHg 24%
    19:00 +39°C° 0 mm 5 mps 719 mmHg 23%
    20:00 +38°C° 0 mm 3 mps 719 mmHg 22%
    21:00 +38°C° 0 mm 2 mps 719 mmHg 23%
    22:00 +37°C° 0 mm 2 mps 719 mmHg 23%
    23:00 +36°C° 0 mm 1 mps 720 mmHg 23%

    28 June, Friday

    Time Temperature Precipitation Wind Pressure Humidity
    00:00 +35°C° 0 mm 1 mps 719 mmHg 24%
    01:00 +35°C° 0 mm 1 mps 719 mmHg 25%
    02:00 +35°C° 0 mm 2 mps 719 mmHg 26%
    03:00 +34°C° 0 mm 1 mps 719 mmHg 27%
    04:00 +33°C° 0 mm 1 mps 719 mmHg 29%
    05:00 +32°C° 0 mm 1 mps 719 mmHg 30%
    06:00 +34°C° 0 mm 1 mps 719 mmHg 27%
    07:00 +35°C° 0 mm 1 mps 720 mmHg 24%
    08:00 +35°C° 0 mm 0 mps 720 mmHg 21%
    09:00 +39°C° 0 mm 1 mps 720 mmHg 19%
    10:00 +41°C° 0 mm 1 mps 720 mmHg 16%
    11:00 +42°C° 0 mm 1 mps 720 mmHg 13%
    12:00 +43°C° 0 mm 1 mps 720 mmHg 12%
    13:00 +44°C° 0 mm 1 mps 719 mmHg 11%
    14:00 +45°C° 0 mm 1 mps 719 mmHg 10%
    15:00 +46°C° 0 mm 2 mps 719 mmHg 11%
    16:00 +46°C° 0 mm 3 mps 718 mmHg 12%
    17:00 +45°C° 0 mm 4 mps 718 mmHg 13%
    18:00 +44°C° 0 mm 4 mps 718 mmHg 16%
    19:00 +42°C° 0 mm 3 mps 718 mmHg 19%
    20:00 +40°C° 0 mm 3 mps 719 mmHg 21%
    21:00 +39°C° 0 mm 2 mps 719 mmHg 23%
    22:00 +37°C° 0 mm 1 mps 719 mmHg 24%
    23:00 +37°C° 0 mm 1 mps 719 mmHg 25%

    29 June, Saturday

    Time Temperature Precipitation Wind Pressure Humidity
    00:00 +36°C° 0 mm 1 mps 719 mmHg 26%
    01:00 +36°C° 0 mm 1 mps 719 mmHg 26%
    02:00 +35°C° 0 mm 1 mps 719 mmHg 27%
    03:00 +35°C° 0 mm 1 mps 719 mmHg 27%
    04:00 +34°C° 0 mm 1 mps 719 mmHg 28%
    05:00 +34°C° 0 mm 1 mps 719 mmHg 28%
    06:00 +35°C° 0 mm 1 mps 719 mmHg 25%
    07:00 +36°C° 0 mm 1 mps 719 mmHg 22%
    08:00 +39°C° 0 mm 1 mps 719 mmHg 18%
    09:00 +40°C° 0 mm 1 mps 719 mmHg 16%
    10:00 +42°C° 0 mm 1 mps 719 mmHg 14%
    11:00 +43°C° 0 mm 1 mps 719 mmHg 11%
    12:00 +44°C° 0 mm 1 mps 719 mmHg 10%
    13:00 +45°C° 0 mm 1 mps 719 mmHg 10%
    14:00 +47°C° 0 mm 2 mps 718 mmHg 9%
    15:00 +47°C° 0 mm 2 mps 718 mmHg 9%
    16:00 +47°C° 0 mm 3 mps 718 mmHg 10%
    17:00 +48°C° 0 mm 4 mps 718 mmHg 10%
    18:00 +46°C° 0 mm 3 mps 718 mmHg 13%
    19:00 +43°C° 0 mm 2 mps 718 mmHg 15%
    20:00 +42°C° 0 mm 1 mps 718 mmHg 18%
    21:00 +41°C° 0 mm 1 mps 718 mmHg 19%
    22:00 +40°C° 0 mm 1 mps 718 mmHg 20%
    23:00 +40°C° 0 mm 1 mps 719 mmHg 21%

    30 June, Sunday

    Time Temperature Precipitation Wind Pressure Humidity
    00:00 +39°C° 0 mm 1 mps 718 mmHg 22%
    01:00 +37°C° 0 mm 1 mps 718 mmHg 22%
    02:00 +36°C° 0 mm 1 mps 718 mmHg 23%
    03:00 +36°C° 0 mm 1 mps 718 mmHg 24%
    04:00 +35°C° 0 mm 1 mps 718 mmHg 24%
    05:00 +34°C° 0 mm 1 mps 718 mmHg 25%
    06:00 +36°C° 0 mm 1 mps 718 mmHg 23%
    07:00 +37°C° 0 mm 1 mps 718 mmHg 21%
    08:00 +40°C° 0 mm 1 mps 719 mmHg 19%
    09:00 +41°C° 0 mm 1 mps 719 mmHg 17%
    10:00 +43°C° 0 mm 1 mps 719 mmHg 15%
    11:00 +44°C° 0 mm 1 mps 719 mmHg 14%
    12:00 +45°C° 0 mm 1 mps 719 mmHg 13%
    13:00 +46°C° 0 mm 1 mps 718 mmHg 12%
    14:00 +47°C° 0 mm 1 mps 718 mmHg 11%
    15:00 +48°C° 0 mm 2 mps 718 mmHg 11%
    16:00 +49°C° 0 mm 2 mps 718 mmHg 11%
    17:00 +50°C° 0 mm 3 mps 717 mmHg 11%
    18:00 +47°C° 0 mm 2 mps 717 mmHg 13%
    19:00 +46°C° 0 mm 2 mps 717 mmHg 15%
    20:00 +43°C° 0 mm 2 mps 718 mmHg 17%
    21:00 +42°C° 0 mm 2 mps 718 mmHg 18%
    22:00 +41°C° 0 mm 1 mps 718 mmHg 20%
    23:00 +40°C° 0 mm 1 mps 718 mmHg 21%
    Show more